^^
Datos históricos de la estación: Murcia-Puente Tocinos
 
Diario Informe para Enero 17, 2020 Unidades:  Métrico    Inglés   Ambas
Diario Semanal Mensual Anual Configurable
  Actual: Máximo: Mínimo: Media:
Temperatura: 18.7 °C 19.7 °C 4.9 °C 11 °C
Punto de rocio: 4.8 °C 5.0 °C 1.7 °C 3.5 °C
Humedad: 40% 80% 36% 63%
Velocidad viento: 11.3km/h 20.9km/h 3.2km/h 7.7km/h
Racha viento: 22.5km/h 37.0km/h - -
VientoWest - - SSW
Presión: 1027.6 hPa 1030.4 hPa 1027.2 hPa -
Precipitación: 0.0 mm      
Historical Graphs
 
 
Tabla de datos para Enero 17, 2020
Hora Temperatura Punto de rocio Presión Viento Velocidad viento Racha viento Humedad Intensidad lluvia(por hora) Nubes
00:00 10.0 °C 5.0 °C 1027.6 hPa SW 8.0 km/h 9.7 km/h 71% 0.0 mm CLR
00:05 9.9 °C 4.9 °C 1027.6 hPa SW 8.0 km/h 11.3 km/h 71% 0.0 mm CLR
00:10 9.9 °C 4.9 °C 1027.7 hPa SW 8.0 km/h 11.3 km/h 71% 0.0 mm CLR
00:15 9.8 °C 4.8 °C 1027.7 hPa SW 8.0 km/h 9.7 km/h 71% 0.0 mm CLR
00:20 9.8 °C 5.0 °C 1027.7 hPa SW 8.0 km/h 9.7 km/h 72% 0.0 mm CLR
00:25 9.8 °C 5.0 °C 1027.6 hPa SSW 8.0 km/h 9.7 km/h 72% 0.0 mm CLR
00:30 9.8 °C 4.8 °C 1027.6 hPa SSW 8.0 km/h 9.7 km/h 71% 0.0 mm CLR
00:35 9.8 °C 4.8 °C 1027.6 hPa SSW 8.0 km/h 9.7 km/h 71% 0.0 mm CLR
00:40 9.7 °C 4.7 °C 1027.5 hPa South 8.0 km/h 11.3 km/h 71% 0.0 mm CLR
00:45 9.6 °C 4.6 °C 1027.5 hPa South 8.0 km/h 14.5 km/h 71% 0.0 mm CLR
00:50 9.4 °C 4.6 °C 1027.5 hPa South 8.0 km/h 14.5 km/h 72% 0.0 mm CLR
00:55 9.3 °C 4.7 °C 1027.2 hPa SSW 9.7 km/h 14.5 km/h 73% 0.0 mm CLR
01:00 9.3 °C 4.7 °C 1027.2 hPa SSW 9.7 km/h 14.5 km/h 73% 0.0 mm CLR
01:05 9.3 °C 4.7 °C 1027.2 hPa SSW 9.7 km/h 12.9 km/h 73% 0.0 mm CLR
01:10 9.3 °C 4.5 °C 1027.2 hPa SSW 9.7 km/h 11.3 km/h 72% 0.0 mm CLR
01:15 9.3 °C 4.5 °C 1027.2 hPa SSW 8.0 km/h 8.0 km/h 72% 0.0 mm CLR
01:20 9.2 °C 4.6 °C 1027.2 hPa SSW 8.0 km/h 11.3 km/h 73% 0.0 mm CLR
01:25 9.1 °C 4.5 °C 1027.5 hPa SW 4.8 km/h 11.3 km/h 73% 0.0 mm CLR
01:30 9.1 °C 4.3 °C 1027.5 hPa SW 4.8 km/h 9.7 km/h 72% 0.0 mm CLR
01:35 9.1 °C 4.3 °C 1027.5 hPa SSW 8.0 km/h 11.3 km/h 72% 0.0 mm CLR
01:40 8.9 °C 4.1 °C 1027.5 hPa SSE 8.0 km/h 11.3 km/h 72% 0.0 mm CLR
01:45 8.7 °C 4.1 °C 1027.5 hPa SSE 8.0 km/h 14.5 km/h 73% 0.0 mm CLR
01:50 8.4 °C 4.1 °C 1027.5 hPa SSE 8.0 km/h 11.3 km/h 74% 0.0 mm CLR
01:55 8.3 °C 4.1 °C 1027.5 hPa SSE 8.0 km/h 12.9 km/h 75% 0.0 mm CLR
02:00 8.2 °C 4.1 °C 1027.5 hPa South 8.0 km/h 9.7 km/h 75% 0.0 mm CLR
02:05 8.2 °C 4.1 °C 1027.5 hPa SSE 8.0 km/h 11.3 km/h 75% 0.0 mm CLR
02:10 8.1 °C 4.1 °C 1027.4 hPa SSW 8.0 km/h 11.3 km/h 76% 0.0 mm CLR
02:15 8.1 °C 4.1 °C 1027.4 hPa SW 8.0 km/h 9.7 km/h 76% 0.0 mm CLR
02:20 8.1 °C 4.1 °C 1027.4 hPa SSW 8.0 km/h 9.7 km/h 76% 0.0 mm CLR
02:25 8.1 °C 3.9 °C 1027.4 hPa South 8.0 km/h 12.9 km/h 75% 0.0 mm CLR
02:30 8.1 °C 3.9 °C 1027.4 hPa South 8.0 km/h 9.7 km/h 75% 0.0 mm CLR
02:35 8.0 °C 3.8 °C 1027.4 hPa SSW 8.0 km/h 11.3 km/h 75% 0.0 mm CLR
02:40 7.9 °C 3.9 °C 1027.7 hPa SSW 8.0 km/h 9.7 km/h 76% 0.0 mm CLR
02:45 7.9 °C 3.9 °C 1027.7 hPa South 8.0 km/h 9.7 km/h 76% 0.0 mm CLR
02:50 7.8 °C 3.8 °C 1027.7 hPa South 8.0 km/h 14.5 km/h 76% 0.0 mm CLR
02:55 7.7 °C 3.7 °C 1027.5 hPa South 9.7 km/h 14.5 km/h 76% 0.0 mm CLR
03:00 7.6 °C 3.6 °C 1027.5 hPa South 9.7 km/h 11.3 km/h 76% 0.0 mm CLR
03:05 7.4 °C 3.4 °C 1027.5 hPa SSW 8.0 km/h 14.5 km/h 76% 0.0 mm CLR
03:10 7.4 °C 3.4 °C 1027.6 hPa SW 8.0 km/h 11.3 km/h 76% 0.0 mm CLR
03:15 7.4 °C 3.4 °C 1027.6 hPa SW 8.0 km/h 9.7 km/h 76% 0.0 mm CLR
03:20 7.6 °C 3.6 °C 1027.6 hPa SW 8.0 km/h 9.7 km/h 76% 0.0 mm CLR
03:25 7.6 °C 3.4 °C 1027.7 hPa SW 4.8 km/h 9.7 km/h 75% 0.0 mm CLR
03:30 7.6 °C 3.4 °C 1027.7 hPa WSW 4.8 km/h 8.0 km/h 75% 0.0 mm CLR
03:35 7.6 °C 3.4 °C 1027.7 hPa WSW 3.2 km/h 9.7 km/h 75% 0.0 mm CLR
03:40 7.6 °C 3.4 °C 1027.8 hPa WSW 3.2 km/h 8.0 km/h 75% 0.0 mm CLR
03:45 7.5 °C 3.4 °C 1027.8 hPa SW 3.2 km/h 9.7 km/h 75% 0.0 mm CLR
03:50 7.5 °C 3.4 °C 1027.8 hPa South 3.2 km/h 9.7 km/h 75% 0.0 mm CLR
03:55 7.4 °C 3.3 °C 1027.8 hPa South 4.8 km/h 9.7 km/h 75% 0.0 mm CLR
04:00 7.3 °C 3.2 °C 1027.8 hPa South 4.8 km/h 9.7 km/h 75% 0.0 mm CLR
04:05 7.2 °C 3.2 °C 1027.8 hPa SSW 4.8 km/h 11.3 km/h 76% 0.0 mm CLR
04:10 7.2 °C 3.2 °C 1028.0 hPa SSW 4.8 km/h 11.3 km/h 76% 0.0 mm CLR
04:15 7.1 °C 3.2 °C 1028.0 hPa South 6.9 km/h 9.3 km/h 76% 0.0 mm CLR
04:20 7.1 °C 3.1 °C 1028.0 hPa South 8.0 km/h 11.3 km/h 76% 0.0 mm CLR
04:25 6.9 °C 2.9 °C 1027.7 hPa South 8.0 km/h 12.9 km/h 76% 0.0 mm CLR
04:30 6.7 °C 2.9 °C 1027.7 hPa South 7.6 km/h 11.1 km/h 77% 0.0 mm CLR
04:35 6.6 °C 2.8 °C 1027.7 hPa SSE 8.4 km/h 7.4 km/h 77% 0.0 mm CLR
04:40 6.4 °C 2.7 °C 1027.6 hPa SSE 8.0 km/h 9.7 km/h 77% 0.0 mm CLR
04:45 6.3 °C 2.7 °C 1027.6 hPa South 4.8 km/h 9.7 km/h 78% 0.0 mm CLR
04:50 6.3 °C 2.9 °C 1027.6 hPa SW 4.8 km/h 8.0 km/h 79% 0.0 mm CLR
04:55 6.3 °C 2.9 °C 1027.8 hPa WSW 3.2 km/h 9.7 km/h 79% 0.0 mm CLR
05:00 6.4 °C 3.0 °C 1027.8 hPa SW 3.2 km/h 11.3 km/h 79% 0.0 mm CLR
05:05 6.4 °C 3.0 °C 1027.8 hPa SSW 8.0 km/h 11.3 km/h 79% 0.0 mm CLR
05:10 6.4 °C 2.8 °C 1027.4 hPa South 8.0 km/h 14.5 km/h 78% 0.0 mm CLR
05:15 6.4 °C 2.8 °C 1027.4 hPa South 9.7 km/h 14.5 km/h 78% 0.0 mm CLR
05:20 6.3 °C 2.6 °C 1027.4 hPa SSE 9.7 km/h 16.1 km/h 77% 0.0 mm CLR
05:25 6.2 °C 2.7 °C 1027.3 hPa South 8.0 km/h 9.7 km/h 78% 0.0 mm CLR
05:30 6.2 °C 2.7 °C 1027.3 hPa SSW 8.0 km/h 11.3 km/h 78% 0.0 mm CLR
05:35 6.3 °C 2.7 °C 1027.3 hPa SW 8.0 km/h 11.3 km/h 78% 0.0 mm CLR
05:40 6.3 °C 2.6 °C 1027.5 hPa West 8.0 km/h 11.3 km/h 77% 0.0 mm CLR
05:45 6.3 °C 2.6 °C 1027.5 hPa WSW 8.0 km/h 11.3 km/h 77% 0.0 mm CLR
05:50 6.3 °C 2.6 °C 1027.5 hPa SW 8.0 km/h 9.7 km/h 77% 0.0 mm CLR
05:55 6.4 °C 2.7 °C 1027.4 hPa South 8.0 km/h 9.7 km/h 77% 0.0 mm CLR
06:00 6.4 °C 2.5 °C 1027.4 hPa SE 8.0 km/h 9.7 km/h 76% 0.0 mm CLR
06:05 6.3 °C 2.4 °C 1027.4 hPa SE 4.8 km/h 14.5 km/h 76% 0.0 mm CLR
06:10 6.1 °C 2.4 °C 1027.5 hPa SSE 4.8 km/h 12.9 km/h 77% 0.0 mm CLR
06:15 5.8 °C 2.3 °C 1027.5 hPa SSE 9.7 km/h 16.1 km/h 78% 0.0 mm CLR
06:20 5.6 °C 2.2 °C 1027.5 hPa South 9.7 km/h 9.7 km/h 79% 0.0 mm CLR
06:25 5.6 °C 2.2 °C 1027.5 hPa SSW 8.0 km/h 9.7 km/h 79% 0.0 mm CLR
06:30 5.7 °C 2.3 °C 1027.5 hPa SW 8.0 km/h 11.3 km/h 79% 0.0 mm CLR
06:35 5.9 °C 2.6 °C 1027.5 hPa SW 8.0 km/h 11.3 km/h 79% 0.0 mm CLR
06:40 6.1 °C 2.6 °C 1027.5 hPa SW 8.0 km/h 11.3 km/h 78% 0.0 mm CLR
06:45 6.2 °C 2.4 °C 1027.5 hPa WSW 8.0 km/h 11.3 km/h 77% 0.0 mm CLR
06:50 6.1 °C 2.4 °C 1027.5 hPa West 8.0 km/h 8.0 km/h 77% 0.0 mm CLR
06:55 6.1 °C 2.4 °C 1027.6 hPa West 3.2 km/h 8.0 km/h 77% 0.0 mm CLR
07:00 6.1 °C 2.4 °C 1027.6 hPa WSW 3.2 km/h 11.3 km/h 77% 0.0 mm CLR
07:05 6.3 °C 2.4 °C 1027.6 hPa WSW 4.8 km/h 9.7 km/h 76% 0.0 mm CLR
07:10 6.3 °C 2.2 °C 1028.0 hPa SW 4.8 km/h 8.0 km/h 75% 0.0 mm CLR
07:15 6.3 °C 2.2 °C 1028.0 hPa SSE 4.8 km/h 9.7 km/h 75% 0.0 mm CLR
07:20 5.8 °C 1.9 °C 1028.0 hPa SE 4.8 km/h 12.9 km/h 76% 0.0 mm CLR
07:25 5.6 °C 1.8 °C 1028.2 hPa SSE 8.0 km/h 11.3 km/h 77% 0.0 mm CLR
07:30 5.3 °C 1.8 °C 1028.2 hPa SSE 8.0 km/h 12.9 km/h 78% 0.0 mm CLR
07:35 5.1 °C 1.7 °C 1028.2 hPa SSE 9.7 km/h 16.1 km/h 79% 0.0 mm CLR
07:40 4.9 °C 1.7 °C 1028.3 hPa South 9.7 km/h 9.7 km/h 80% 0.0 mm CLR
07:45 5.0 °C 1.8 °C 1028.3 hPa South 8.0 km/h 11.3 km/h 80% 0.0 mm CLR
07:50 5.1 °C 1.9 °C 1028.3 hPa South 8.0 km/h 8.0 km/h 80% 0.0 mm CLR
07:55 5.3 °C 2.2 °C 1028.6 hPa SSE 4.8 km/h 11.3 km/h 80% 0.0 mm CLR
08:00 5.6 °C 2.2 °C 1028.6 hPa South 4.8 km/h 12.9 km/h 79% 0.0 mm CLR
08:05 5.8 °C 2.3 °C 1028.6 hPa SSW 8.0 km/h 11.3 km/h 78% 0.0 mm CLR
08:10 6.1 °C 2.4 °C 1028.9 hPa South 8.0 km/h 11.3 km/h 77% 0.0 mm CLR
08:15 6.1 °C 2.4 °C 1028.9 hPa SE 8.0 km/h 14.5 km/h 77% 0.0 mm CLR
08:20 6.0 °C 2.3 °C 1028.9 hPa SE 8.0 km/h 16.1 km/h 77% 0.0 mm CLR
08:25 5.8 °C 2.3 °C 1028.9 hPa SSE 9.7 km/h 16.1 km/h 78% 0.0 mm CLR
08:30 5.7 °C 2.3 °C 1028.9 hPa SSE 9.7 km/h 17.7 km/h 79% 0.0 mm CLR
08:35 5.6 °C 2.2 °C 1028.9 hPa SSE 11.3 km/h 19.3 km/h 79% 0.0 mm CLR
08:40 5.7 °C 2.3 °C 1029.0 hPa SSE 11.3 km/h 14.5 km/h 79% 0.0 mm CLR
08:45 5.8 °C 2.4 °C 1029.0 hPa SSE 9.7 km/h 12.9 km/h 79% 0.0 mm CLR
08:50 5.9 °C 2.6 °C 1029.0 hPa SSE 9.7 km/h 12.9 km/h 79% 0.0 mm CLR
08:55 6.2 °C 2.6 °C 1028.8 hPa South 9.7 km/h 11.3 km/h 78% 0.0 mm CLR
09:00 6.4 °C 2.7 °C 1028.8 hPa SSW 9.7 km/h 9.7 km/h 77% 0.0 mm CLR
09:05 6.6 °C 2.7 °C 1028.8 hPa SSW 8.0 km/h 9.7 km/h 76% 0.0 mm CLR
09:10 6.8 °C 2.7 °C 1028.9 hPa SSW 8.0 km/h 9.7 km/h 75% 0.0 mm CLR
09:15 6.9 °C 2.8 °C 1028.9 hPa WSW 4.8 km/h 11.3 km/h 75% 0.0 mm CLR
09:20 7.2 °C 2.8 °C 1028.9 hPa WSW 4.8 km/h 9.7 km/h 74% 0.0 mm CLR
09:25 7.3 °C 2.8 °C 1029.2 hPa SW 8.0 km/h 11.3 km/h 73% 0.0 mm CLR
09:30 7.6 °C 2.7 °C 1029.2 hPa SW 8.0 km/h 14.5 km/h 71% 0.0 mm CLR
09:35 7.8 °C 2.7 °C 1029.2 hPa SSW 9.7 km/h 12.9 km/h 70% 0.0 mm CLR
09:40 7.9 °C 2.8 °C 1029.3 hPa SSW 9.7 km/h 9.7 km/h 70% 0.0 mm CLR
09:45 8.1 °C 2.9 °C 1029.3 hPa SSW 4.8 km/h 8.0 km/h 70% 0.0 mm CLR
09:50 8.3 °C 2.9 °C 1029.3 hPa WSW 4.8 km/h 8.0 km/h 69% 0.0 mm CLR
09:55 8.6 °C 3.0 °C 1029.6 hPa West 3.2 km/h 8.0 km/h 68% 0.0 mm CLR
10:00 8.8 °C 2.8 °C 1029.6 hPa SW 3.2 km/h 9.7 km/h 66% 0.0 mm CLR
10:05 8.8 °C 2.8 °C 1029.6 hPa SW 4.8 km/h 11.3 km/h 66% 0.0 mm CLR
10:10 8.9 °C 2.9 °C 1029.6 hPa SSW 4.8 km/h 11.3 km/h 66% 0.0 mm CLR
10:15 9.2 °C 2.9 °C 1029.6 hPa South 8.0 km/h 14.5 km/h 65% 0.0 mm CLR
10:20 9.4 °C 3.2 °C 1029.6 hPa SSE 8.0 km/h 12.9 km/h 65% 0.0 mm CLR
10:25 9.6 °C 3.1 °C 1029.4 hPa SSE 8.0 km/h 11.3 km/h 64% 0.0 mm CLR
10:30 9.7 °C 2.9 °C 1029.4 hPa South 8.0 km/h 12.9 km/h 63% 0.0 mm CLR
10:35 9.7 °C 2.8 °C 1029.4 hPa SSW 8.0 km/h 12.9 km/h 62% 0.0 mm CLR
10:40 9.8 °C 2.9 °C 1029.8 hPa SSW 8.0 km/h 8.0 km/h 62% 0.0 mm CLR
10:45 10.1 °C 3.1 °C 1029.8 hPa SW 4.8 km/h 9.7 km/h 62% 0.0 mm CLR
10:50 10.1 °C 3.2 °C 1029.8 hPa South 5.0 km/h 10.0 km/h 62% 0.0 mm CLR
10:55 10.3 °C 3.3 °C 1029.9 hPa SW 4.8 km/h 11.3 km/h 62% 0.0 mm CLR
11:00 10.6 °C 3.4 °C 1029.9 hPa SSW 4.8 km/h 11.3 km/h 61% 0.0 mm CLR
11:05 10.8 °C 3.6 °C 1029.9 hPa SSW 8.0 km/h 11.3 km/h 61% 0.0 mm CLR
11:10 11.1 °C 3.6 °C 1030.2 hPa SSW 8.0 km/h 11.3 km/h 60% 0.0 mm CLR
11:15 11.3 °C 3.6 °C 1030.2 hPa South 8.0 km/h 12.9 km/h 59% 0.0 mm CLR
11:20 11.6 °C 3.8 °C 1030.2 hPa South 8.0 km/h 11.3 km/h 59% 0.0 mm CLR
11:25 11.8 °C 3.8 °C 1030.3 hPa SSE 8.0 km/h 14.5 km/h 58% 0.0 mm CLR
11:30 12.1 °C 3.8 °C 1030.3 hPa South 8.0 km/h 12.9 km/h 57% 0.0 mm CLR
11:35 12.2 °C 3.7 °C 1030.3 hPa South 8.0 km/h 14.5 km/h 56% 0.0 mm CLR
11:40 12.4 °C 3.6 °C 1030.4 hPa SSW 8.0 km/h 12.9 km/h 55% 0.0 mm CLR
11:45 12.6 °C 3.6 °C 1030.4 hPa SSW 8.0 km/h 12.9 km/h 54% 0.0 mm CLR
11:50 12.8 °C 3.7 °C 1030.4 hPa SSW 8.0 km/h 11.3 km/h 54% 0.0 mm CLR
11:55 13.2 °C 3.5 °C 1030.3 hPa South 8.0 km/h 12.9 km/h 52% 0.0 mm CLR
12:00 13.4 °C 3.5 °C 1030.3 hPa South 8.0 km/h 12.9 km/h 51% 0.0 mm CLR
12:05 13.8 °C 3.8 °C 1030.3 hPa South 8.0 km/h 12.9 km/h 51% 0.0 mm CLR
12:10 14.1 °C 3.8 °C 1030.1 hPa South 8.0 km/h 12.9 km/h 50% 0.0 mm CLR
12:15 14.3 °C 3.7 °C 1030.1 hPa South 8.0 km/h 14.5 km/h 49% 0.0 mm CLR
12:20 14.3 °C 3.4 °C 1030.1 hPa South 8.0 km/h 12.9 km/h 48% 0.0 mm CLR
12:25 14.4 °C 3.8 °C 1029.8 hPa SSE 9.7 km/h 11.3 km/h 49% 0.0 mm CLR
12:30 14.7 °C 3.8 °C 1029.8 hPa South 9.7 km/h 9.7 km/h 48% 0.0 mm CLR
12:35 15.1 °C 3.6 °C 1029.8 hPa SSW 4.8 km/h 9.7 km/h 46% 0.0 mm CLR
12:40 15.3 °C 3.4 °C 1029.7 hPa SSW 4.8 km/h 9.7 km/h 45% 0.0 mm CLR
12:45 15.6 °C 3.7 °C 1029.7 hPa SW 4.8 km/h 11.3 km/h 45% 0.0 mm CLR
12:50 15.7 °C 3.4 °C 1029.7 hPa WSW 4.8 km/h 9.7 km/h 44% 0.0 mm CLR
12:55 15.9 °C 3.7 °C 1029.4 hPa SW 4.8 km/h 9.7 km/h 44% 0.0 mm CLR
13:00 16.2 °C 3.9 °C 1029.4 hPa SSW 4.8 km/h 9.7 km/h 44% 0.0 mm CLR
13:05 16.4 °C 3.8 °C 1029.4 hPa SSW 4.8 km/h 11.3 km/h 43% 0.0 mm CLR
13:10 16.7 °C 3.7 °C 1029.0 hPa SSW 4.8 km/h 11.3 km/h 42% 0.0 mm CLR
13:15 16.9 °C 3.9 °C 1029.0 hPa South 8.0 km/h 9.7 km/h 42% 0.0 mm CLR
13:20 17.2 °C 3.8 °C 1029.0 hPa SSE 8.0 km/h 8.0 km/h 41% 0.0 mm CLR
13:25 17.4 °C 3.7 °C 1028.8 hPa SSE 4.8 km/h 11.3 km/h 40% 0.0 mm CLR
13:30 17.4 °C 4.1 °C 1028.8 hPa SSE 4.8 km/h 8.0 km/h 41% 0.0 mm CLR
13:35 17.7 °C 3.9 °C 1028.8 hPa SSE 4.8 km/h 9.7 km/h 40% 0.0 mm CLR
13:40 17.8 °C 4.0 °C 1028.5 hPa SSE 4.8 km/h 9.7 km/h 40% 0.0 mm CLR
13:45 18.0 °C 3.8 °C 1028.5 hPa SSE 4.8 km/h 8.0 km/h 39% 0.0 mm CLR
13:50 18.2 °C 3.6 °C 1028.5 hPa South 4.8 km/h 8.0 km/h 38% 0.0 mm CLR
13:55 18.4 °C 3.8 °C 1028.2 hPa SSE 3.2 km/h 11.3 km/h 38% 0.0 mm CLR
14:00 18.4 °C 3.8 °C 1028.2 hPa South 3.2 km/h 11.3 km/h 38% 0.0 mm CLR
14:05 18.4 °C 3.4 °C 1028.2 hPa South 8.0 km/h 11.3 km/h 37% 0.0 mm CLR
14:10 18.5 °C 3.5 °C 1028.0 hPa South 8.0 km/h 11.3 km/h 37% 0.0 mm CLR
14:15 18.6 °C 3.6 °C 1028.0 hPa SSW 8.0 km/h 11.3 km/h 37% 0.0 mm CLR
14:20 18.8 °C 3.8 °C 1028.0 hPa SSW 8.0 km/h 9.7 km/h 37% 0.0 mm CLR
14:25 18.9 °C 3.5 °C 1027.6 hPa South 4.8 km/h 9.7 km/h 36% 0.0 mm CLR
14:30 19.0 °C 3.6 °C 1027.6 hPa South 4.8 km/h 8.0 km/h 36% 0.0 mm CLR
14:35 19.1 °C 3.7 °C 1027.6 hPa SSW 3.2 km/h 4.8 km/h 36% 0.0 mm CLR
14:40 19.2 °C 3.8 °C 1027.6 hPa SW 3.2 km/h 8.0 km/h 36% 0.0 mm CLR
14:45 19.1 °C 3.7 °C 1027.6 hPa SW 3.2 km/h 8.0 km/h 36% 0.0 mm CLR
14:50 19.1 °C 3.7 °C 1027.6 hPa SW 3.2 km/h 6.4 km/h 36% 0.0 mm CLR
14:55 19.1 °C 3.7 °C 1027.5 hPa SSW 3.2 km/h 9.7 km/h 36% 0.0 mm CLR
15:00 19.2 °C 3.8 °C 1027.5 hPa SSE 3.2 km/h 12.9 km/h 36% 0.0 mm CLR
15:05 19.2 °C 3.8 °C 1027.5 hPa SSE 8.0 km/h 12.9 km/h 36% 0.0 mm CLR
15:10 19.2 °C 3.8 °C 1027.4 hPa SSE 6.9 km/h 10.3 km/h 36% 0.0 mm CLR
15:15 19.2 °C 3.8 °C 1027.4 hPa South 8.0 km/h 12.9 km/h 36% 0.0 mm CLR
15:20 19.2 °C 3.8 °C 1027.4 hPa South 6.9 km/h 11.1 km/h 36% 0.0 mm CLR
15:25 19.3 °C 3.8 °C 1027.3 hPa SSE 8.0 km/h 12.9 km/h 36% 0.0 mm CLR
15:30 19.3 °C 3.8 °C 1027.3 hPa SSE 8.0 km/h 17.7 km/h 36% 0.0 mm CLR
15:35 19.3 °C 3.8 °C 1027.3 hPa SSE 9.7 km/h 14.5 km/h 36% 0.0 mm CLR
15:40 19.2 °C 3.8 °C 1027.2 hPa South 9.7 km/h 11.3 km/h 36% 0.0 mm CLR
15:45 19.4 °C 3.9 °C 1027.2 hPa SSW 9.7 km/h 16.1 km/h 36% 0.0 mm CLR
15:50 19.6 °C 4.1 °C 1027.2 hPa SW 9.7 km/h 14.5 km/h 36% 0.0 mm CLR
15:55 19.7 °C 4.2 °C 1027.3 hPa WSW 8.0 km/h 11.3 km/h 36% 0.0 mm CLR
16:00 19.7 °C 4.2 °C 1027.3 hPa WSW 8.0 km/h 16.1 km/h 36% 0.0 mm CLR
16:05 19.7 °C 4.6 °C 1027.3 hPa WNW 8.0 km/h 33.8 km/h 37% 0.0 mm CLR
16:10 19.6 °C 4.9 °C 1027.4 hPa WNW 8.0 km/h 37.0 km/h 38% 0.0 mm CLR
16:15 19.5 °C 4.8 °C 1027.4 hPa WNW 20.9 km/h 29.0 km/h 38% 0.0 mm CLR
16:20 19.4 °C 4.7 °C 1027.4 hPa WNW 20.9 km/h 33.8 km/h 38% 0.0 mm CLR
16:25 19.3 °C 4.6 °C 1027.4 hPa NW 19.0 km/h 33.3 km/h 38% 0.0 mm CLR
16:30 19.3 °C 5.0 °C 1027.4 hPa WNW 19.3 km/h 30.6 km/h 39% 0.0 mm CLR
16:35 19.2 °C 4.9 °C 1027.4 hPa WNW 16.1 km/h 29.0 km/h 39% 0.0 mm CLR
16:40 19.0 °C 4.7 °C 1027.4 hPa WNW 16.1 km/h 33.8 km/h 39% 0.0 mm CLR
16:45 18.9 °C 4.6 °C 1027.4 hPa WNW 19.3 km/h 27.4 km/h 39% 0.0 mm CLR
16:50 19.1 °C 4.8 °C 1027.4 hPa WNW 19.3 km/h 24.1 km/h 39% 0.0 mm CLR
16:55 19.1 °C 4.8 °C 1027.4 hPa WNW 14.5 km/h 27.4 km/h 39% 0.0 mm CLR
17:00 19.0 °C 4.7 °C 1027.4 hPa WNW 14.5 km/h 22.5 km/h 39% 0.0 mm CLR
17:05 18.9 °C 4.6 °C 1027.4 hPa WNW 12.9 km/h 25.7 km/h 39% 0.0 mm CLR
17:10 18.9 °C 4.6 °C 1027.6 hPa WNW 12.9 km/h 14.5 km/h 39% 0.0 mm CLR
17:15 18.8 °C 4.9 °C 1027.6 hPa West 11.3 km/h 19.3 km/h 40% 0.0 mm CLR
17:20 18.7 °C 4.8 °C 1027.6 hPa West 11.3 km/h 22.5 km/h 40% 0.0 mm CLR
Murcia-Puente Tocinos, España
Compliments of Weather Underground - 2.25 mb

La estación de MeteoMurcia.com, publica sus datos en los siguientes proyectos:

Weather Underground PWS IMURCIAP2 Meteoclimatic www.awekas.at

W3Counter
Web Analytics